Tracking 18980 objects as of 20-Feb-2018
HD Live streaming from Space Station
objects crossing your sky now

FENGYUN 1C DEB

Track FENGYUN 1C DEB now!
10-day predictions


NORAD ID: 30744
Int'l Code: 1999-025ATE
Perigee: 783.1 km
Apogee: 813.5 km
Inclination: 98.8 °
Period: 100.7 minutes
Semi major axis: 7169 km
RCS: 0.029 m2 (small)
Launch date: May 10, 1999
Source: People's Republic of China (PRC)
Launch site: Taiyaun Space Center, China (TSC)

Note: This is SATELLITE DEBRIS
aabbcc
Your satellite tracking list
Your tracking list is empty




NASA's NSSDC Master Catalog

Two Line Element Set (TLE):
1 30744U 99025ATE 18050.67303037 +.00001033 +00000-0 +41555-3 0  9996
2 30744 098.8374 090.9686 0021176 133.8442 352.9269 14.30172440570159
Source of the keplerian elements: AFSPC